CAPE
79 84 102 101 122 104 77 76 61 57 44 23 0 0 11 20 10 6 1 0 0 0 0 0 0 0 0 0 0 0 0 0 0 0 0 0 0 0 0 0 0 0 0 4 72
79 84 70 96 97 127 106 108 89 85 63 43 27 11 15 36 38 27 0 0 0 0 0 0 0 0 0 0 0 0 0 0 0 0 0 0 0 0 0 0 0 0 0 32 48
64 66 66 76 88 109 121 128 115 106 100 78 59 33 50 48 41 3 0 0 0 0 0 0 0 0 0 0 0 0 0 0 0 0 0 0 0 0 0 0 0 0 0 26 41
52 46 55 57 73 108 101 133 150 117 122 119 97 85 76 95 4 0 11 49 0 0 0 0 0 1 0 0 0 0 0 0 0 0 0 0 0 0 0 0 0 0 0 0 56
59 53 50 65 61 91 112 114 169 139 108 141 126 83 68 29 14 10 0 29 0 0 0 11 27 38 15 2 0 1 0 0 0 0 0 0 0 0 0 0 0 0 0 0 63
63 56 57 65 82 90 115 106 132 184 129 147 143 107 77 3 0 0 65 46 2 4 29 38 60 59 38 12 15 14 0 0 0 0 0 0 0 0 0 0 0 0 0 0 6
74 75 69 66 83 99 109 119 105 195 175 149 207 125 56 20 0 0 55 99 66 53 63 67 88 70 43 23 5 3 0 0 0 0 0 0 0 0 0 0 0 0 0 0 0
68 59 77 80 77 89 106 133 108 129 225 161 229 87 30 10 5 13 50 52 76 87 100 92 105 61 55 31 4 2 8 0 0 0 0 0 0 0 0 0 0 0 0 0 0
73 64 66 73 72 69 90 125 116 136 194 206 59 87 7 14 11 54 51 69 68 78 88 52 78 78 38 8 8 35 0 0 0 0 0 0 0 0 0 0 0 0 0 0 0
80 81 81 87 85 91 95 132 130 166 162 103 47 70 6 8 58 95 110 74 97 112 46 84 77 35 0 50 5 3 4 0 0 1 0 0 0 0 0 0 0 0 0 0 0
102 108 113 107 105 110 102 118 65 78 45 21 13 0 0 0 0 79 75 113 86 86 52 97 47 2 0 17 1 0 0 1 0 0 0 0 0 0 0 0 0 0 0 0 0
118 131 105 109 110 135 94 54 0 37 61 6 9 1 0 0 32 43 142 102 74 41 44 46 9 0 0 0 7 7 6 0 0 1 0 0 0 0 0 0 0 0 0 0 0
131 155 133 150 160 142 75 10 46 38 34 79 9 2 0 13 3 11 182 154 31 59 33 32 0 0 0 0 12 2 10 0 1 14 0 0 0 0 0 0 0 0 0 0 0
145 134 127 188 132 49 32 27 92 11 28 5 62 6 5 16 42 17 181 115 81 38 48 75 0 19 0 0 0 1 0 10 13 19 0 12 0 0 0 0 0 0 0 0 0
167 177 153 176 55 33 27 55 42 117 82 7 12 1 9 21 0 9 92 173 30 1 42 7 5 12 37 0 12 0 3 6 22 32 13 0 1 0 0 0 0 0 0 0 0
164 233 260 186 104 13 21 56 19 28 44 1 1 2 3 27 10 88 160 113 85 66 1 10 0 3 0 17 16 10 31 16 28 28 23 0 0 0 0 0 0 0 0 0 0
194 194 226 158 29 50 85 149 33 45 0 1 5 11 8 10 27 75 138 69 38 30 24 3 0 0 0 13 20 10 7 5 1 3 0 0 0 0 0 0 0 0 0 0 0
225 219 151 100 102 120 115 12 8 0 2 0 7 26 39 25 31 68 43 45 49 9 27 6 0 0 0 2 8 1 21 1 8 0 0 0 0 0 0 0 0 0 0 0 0
280 108 38 48 114 128 79 28 0 4 0 8 17 61 3 17 5 25 17 10 3 15 1 11 6 0 0 0 0 2 4 1 1 0 0 0 0 0 0 0 0 0 0 0 0
165 78 20 19 20 44 34 96 36 41 26 63 50 34 11 7 17 14 26 0 8 7 6 12 2 2 5 3 1 0 1 1 4 0 0 0 0 0 0 0 0 0 0 0 0
85 6 3 24 57 2 0 16 1 13 121 79 25 8 39 2 0 1 0 0 0 9 27 62 6 3 6 12 5 15 17 6 0 1 0 0 0 0 0 0 0 0 0 0 0
41 4 60 49 18 0 36 0 11 1 25 98 98 21 38 9 20 3 0 0 1 0 90 26 33 1 1 0 0 0 3 14 3 0 0 0 0 0 0 0 0 0 0 0 0
0 56 109 2 0 13 1 2 11 13 8 11 61 63 29 50 36 0 0 3 0 4 17 11 3 0 1 0 0 9 4 14 26 2 0 0 0 0 0 0 0 0 0 0 0
1 15 82 35 1 7 7 19 77 35 8 2 39 119 43 83 1 14 5 0 3 12 123 3 8 6 2 7 1 29 17 23 39 3 0 0 0 0 0 0 0 0 0 0 0
3 31 3 6 6 20 24 0 106 82 27 8 5 9 8 0 2 3 0 0 0 47 20 12 8 1 10 1 48 38 37 25 43 0 0 0 0 0 0 0 0 0 0 0 0
0 4 1 0 0 0 0 28 1 33 50 6 0 0 1 0 0 0 0 0 0 14 44 27 5 2 7 0 1 31 26 49 16 3 0 0 0 0 0 0 0 0 0 0 0
3 15 0 0 1 2 1 0 1 29 4 0 0 0 0 0 0 0 0 0 0 24 63 50 11 1 1 0 0 0 0 2 7 43 27 3 0 0 0 0 0 0 0 0 0
CIN
-0 -1 -0 -0 -0 -0 -0 -0 -0 -2 -7 -17 -0 -0 -8 -25 -50 -35 -0 -0 -0 -0 -0 -0 -0 -0 -0 -0 -0 -0 -0 -0 -0 -0 -0 -0 -0 -0 -0 -0 -0 -0 -0 -75 -187
-0 -0 -1 -0 -1 -0 -0 -0 -0 -0 -4 -14 -24 -17 -6 -12 -0 -0 -0 -0 -0 -0 -0 -0 -0 -0 -0 -0 -0 -0 -0 -0 -0 -0 -0 -0 -0 -0 -0 -0 -0 -0 -0 -146 -200
-0 -0 -0 -1 -1 -1 -1 -0 -1 -1 -1 -6 -21 -17 -13 -11 -0 -0 -0 -0 -0 -0 -0 -0 -0 -0 -0 -0 -0 -0 -0 -0 -0 -0 -0 -0 -0 -0 -0 -0 -0 -0 -0 -95 -230
-0 -0 -0 -0 -1 -0 -1 -0 -1 -1 -1 -2 -12 -18 -18 -2 -0 -0 -66 -63 -0 -0 -0 -0 -0 -0 -0 -0 -0 -0 -0 -0 -0 -0 -0 -0 -0 -0 -0 -0 -0 -0 -0 -0 -238
-0 -0 -0 -0 -0 -1 -0 -1 -1 -3 -8 -2 -8 -22 -3 -0 -0 -44 -3 -54 -0 -0 -0 -17 -7 -4 -2 -0 -0 -1 -0 -0 -0 -0 -0 -0 -0 -0 -0 -0 -0 -0 -0 -0 -158
-0 -0 -0 -1 -0 -0 -1 -2 -1 -1 -8 -6 -4 -15 -0 -0 -0 -0 -17 -43 -10 -15 -27 -14 -2 -1 -6 -9 -10 -4 -2 -0 -0 -0 -0 -0 -0 -0 -0 -0 -0 -0 -0 -0 -31
-0 -0 -0 -1 -0 -0 -0 -4 -5 -1 -4 -12 -3 -1 -0 -0 -0 -0 -6 -21 -22 -0 -1 -3 -3 -2 -4 -17 -16 -21 -0 -0 -0 -0 -0 -0 -0 -0 -0 -0 -0 -0 -0 -0 -0
-0 -0 -0 -0 -0 -0 -1 -1 -13 -9 -4 -12 -8 -1 -0 -9 -27 -3 -4 -3 -9 -2 -1 -11 -3 -3 -7 -5 -8 -7 -6 -0 -0 -0 -0 -0 -0 -0 -0 -0 -0 -0 -0 -0 -0
-0 -1 -1 -1 -2 -2 -1 -2 -10 -20 -14 -9 -3 -0 -0 -9 -37 -9 -5 -4 -8 -16 -2 -5 -4 -4 -1 -0 -0 -1 -0 -0 -0 -0 -0 -0 -0 -0 -0 -0 -0 -0 -0 -0 -0
-0 -1 -1 -2 -2 -3 -2 -0 -6 -9 -4 -4 -4 -0 -3 -0 -2 -32 -10 -2 -3 -5 -3 -2 -8 -1 -0 -0 -0 -1 -4 -0 -0 -5 -0 -0 -0 -0 -0 -0 -0 -0 -0 -0 -0
-0 -0 -0 -0 -2 -2 -3 -0 -0 -0 -0 -16 -2 -0 -0 -0 -0 -6 -9 -9 -12 -6 -0 -1 -0 -0 -0 -1 -1 -0 -0 -2 -0 -0 -0 -0 -0 -0 -0 -0 -0 -0 -0 -0 -0
-0 -0 -0 -0 -0 -1 -7 -0 -0 -13 -2 -33 -14 -0 -0 -1 -2 -0 -2 -2 -2 -0 -4 -2 -0 -0 -0 -0 -0 -3 -6 -0 -0 -40 -0 -0 -0 -0 -0 -0 -0 -0 -0 -0 -0
-0 -0 -0 -0 -2 -1 -0 -5 -6 -34 -10 -0 -3 -1 -0 -8 -1 -4 -1 -0 -3 -1 -1 -0 -0 -0 -0 -0 -2 -1 -5 -0 -2 -8 -0 -6 -0 -0 -0 -0 -0 -0 -0 -0 -0
-0 -0 -2 -0 -1 -2 -1 -8 -6 -33 -40 -7 -1 -2 -2 -6 -1 -3 -8 -2 -5 -0 -4 -0 -0 -3 -0 -0 -0 -0 -0 -6 -10 -8 -0 -3 -0 -0 -0 -0 -0 -0 -0 -0 -0
-0 -0 -0 -1 -2 -0 -0 -6 -23 -2 -2 -60 -4 -2 -4 -22 -2 -7 -10 -2 -6 -2 -6 -3 -1 -6 -2 -0 -3 -0 -4 -4 -11 -9 -3 -0 -2 -0 -0 -0 -0 -0 -0 -0 -0
-0 -0 -0 -0 -3 -1 -13 -32 -2 -13 -29 -0 -0 -5 -9 -0 -3 -17 -1 -19 -3 -5 -5 -16 -0 -22 -0 -22 -17 -3 -16 -10 -6 -7 -2 -0 -0 -0 -0 -0 -0 -0 -0 -0 -0
-0 -1 -0 -1 -0 -2 -9 -0 -13 -13 -0 -0 -0 -0 -1 -0 -0 -11 -0 -4 -3 -1 -0 -6 -0 -0 -0 -29 -38 -23 -21 -5 -17 -5 -0 -0 -1 -0 -0 -0 -0 -0 -0 -0 -0
-1 -3 -2 -3 -3 -5 -3 -4 -20 -5 -4 -0 -0 -0 -20 -1 -2 -5 -0 -0 -1 -3 -3 -1 -0 -0 -0 -7 -95 -3 -11 -15 -29 -0 -0 -0 -0 -0 -0 -0 -0 -0 -0 -0 -0
-1 -7 -7 -1 -7 -6 -1 -17 -0 -16 -0 -16 -21 -0 -5 -3 -13 -4 -2 -0 -0 -4 -7 -1 -1 -0 -0 -0 -0 -0 -14 -0 -0 -0 -0 -0 -0 -0 -0 -0 -0 -0 -0 -0 -0
-1 -0 -0 -1 -6 -2 -1 -0 -21 -12 -36 -4 -3 -15 -14 -0 -2 -5 -8 -0 -5 -0 -25 -29 -4 -1 -2 -0 -0 -0 -0 -0 -0 -0 -0 -0 -0 -0 -0 -0 -0 -0 -0 -0 -0
-1 -0 -0 -1 -2 -0 -0 -14 -0 -32 -9 -35 -48 -3 -58 -4 -0 -0 -0 -0 -0 -71 -10 -12 -31 -0 -44 -1 -0 -0 -0 -0 -1 -0 -0 -0 -0 -0 -0 -0 -0 -0 -0 -0 -0
-0 -0 -16 -3 -0 -0 -0 -0 -66 -0 -41 -7 -24 -53 -17 -14 -31 -92 -0 -0 -122 -26 -13 -20 -7 -0 -1 -0 -0 -0 -0 -1 -7 -0 -0 -0 -0 -0 -0 -0 -0 -0 -0 -0 -0
-0 -0 -7 -18 -0 -0 -0 -0 -46 -37 -0 -67 -38 -22 -66 -56 -9 -0 -0 -71 -0 -62 -53 -23 -7 -0 -0 -0 -0 -16 -14 -2 -5 -80 -0 -0 -0 -0 -0 -0 -0 -0 -0 -0 -0
-0 -3 -0 -1 -5 -1 -8 -9 -12 -50 -23 -28 -46 -24 -23 -17 -27 -20 -41 -0 -34 -63 -9 -52 -53 -35 -10 -28 -42 -20 -43 -36 -26 -35 -0 -0 -0 -0 -0 -0 -0 -0 -0 -0 -0
-0 -4 -0 -0 -1 -0 -8 -0 -0 -14 -50 -40 -32 -52 -30 -3 -4 -13 -0 -0 -0 -17 -21 -14 -30 -15 -55 -7 -86 -95 -60 -86 -33 -0 -0 -0 -0 -0 -0 -0 -0 -0 -0 -0 -0
-0 -0 -0 -0 -0 -0 -0 -1 -2 -37 -3 -10 -0 -0 -6 -0 -0 -0 -0 -0 -0 -27 -12 -15 -14 -43 -19 -0 -34 -24 -42 -69 -97 -122 -7 -2 -0 -0 -0 -0 -0 -0 -0 -0 -0
-6 -29 -0 -0 -1 -1 -0 -0 -27 -37 -8 -0 -0 -0 -5 -0 -0 -0 -0 -0 -0 -46 -28 -22 -17 -9 -5 -0 -0 -0 -0 -31 -60 -60 -61 -52 -0 -0 -0 -0 -0 -0 -0 -0 -0
Wind_Speed
11 11 13 14 12 11 10 10 8 8 8 7 6 6 4 5 3 5 10 4 4 6 8 12 9 7 7 5 2 3 3 4 8 9 6 6 5 5 2 4 0 6 3 5 13
11 10 11 13 14 12 11 10 9 8 8 7 6 4 3 3 9 16 10 6 4 4 7 9 10 10 5 3 2 3 4 8 8 4 7 9 4 10 2 4 5 5 9 11 9
12 12 11 11 13 15 13 11 9 8 8 7 7 3 4 4 9 13 13 12 8 3 9 8 9 9 8 9 6 3 8 11 12 7 8 6 7 4 7 5 5 2 8 10 10
14 13 13 13 13 14 14 13 10 9 8 8 8 7 7 5 9 5 2 18 14 8 9 8 6 9 6 7 9 12 10 9 10 6 3 7 7 5 7 9 4 3 4 10 11
13 13 14 15 14 14 15 15 12 11 10 8 8 7 4 10 13 6 9 8 8 9 11 10 10 10 12 8 11 14 8 15 9 6 1 8 8 8 9 9 9 4 1 5 9
14 14 14 14 14 14 14 15 14 11 11 9 8 10 7 22 10 11 9 8 9 10 13 11 9 10 7 10 11 5 5 11 11 6 5 9 9 8 8 7 6 6 7 8 9
14 13 14 14 14 13 13 15 15 13 12 11 8 7 10 14 2 8 12 7 8 11 12 12 11 4 3 8 10 2 8 10 8 7 8 6 9 10 13 12 10 8 9 9 10
12 12 13 14 14 14 12 13 15 14 13 12 9 9 11 4 14 9 7 10 6 5 11 5 5 8 11 8 4 4 8 10 9 12 7 7 12 11 12 12 10 12 11 9 11
13 11 12 14 14 13 11 11 14 16 15 11 6 9 13 9 8 9 6 13 10 6 1 0 2 4 6 11 8 8 7 12 12 14 5 9 6 8 7 3 9 9 9 8 9
14 13 12 13 13 12 10 8 10 12 10 6 9 9 12 12 7 6 10 6 7 8 4 4 5 6 8 9 15 9 13 13 14 2 3 9 12 9 11 7 7 8 9 9 8
16 14 14 14 14 14 8 3 4 7 11 8 9 11 2 16 14 13 13 9 9 10 11 6 7 18 16 13 13 15 15 11 10 3 2 6 11 10 13 10 9 8 9 9 9
17 17 17 16 15 15 10 10 14 1 5 19 10 23 14 17 11 12 14 12 11 14 15 7 20 21 9 16 16 18 17 19 11 7 3 7 15 13 15 14 11 11 12 11 10
18 18 18 17 16 10 13 20 11 3 3 9 16 14 22 10 15 17 18 11 11 17 16 16 14 15 14 16 16 18 18 14 13 7 2 5 16 14 15 22 22 21 18 13 13
20 19 19 18 11 10 15 12 6 4 7 10 15 11 13 13 12 12 21 12 7 19 17 15 17 13 19 19 17 18 10 9 10 3 7 3 13 8 8 15 14 6 7 9 9
20 19 21 23 6 16 4 10 9 3 18 12 14 9 10 20 10 17 22 15 16 11 8 7 9 22 16 25 10 16 4 8 12 11 4 12 6 8 3 10 10 11 9 8 8
19 20 22 15 11 12 12 12 5 10 12 13 12 16 19 24 11 7 12 3 5 8 4 7 2 4 11 10 10 2 7 7 5 4 8 24 9 22 12 12 13 8 5 1 8
21 21 19 12 16 12 13 7 12 20 5 6 16 23 26 19 23 11 17 12 12 13 11 9 5 2 2 2 2 6 9 5 7 7 12 10 11 19 11 10 4 5 6 5 7
20 17 14 10 11 14 13 12 14 22 9 4 11 22 26 22 19 16 19 15 16 15 9 12 11 17 9 5 7 12 13 6 5 6 7 8 11 8 2 3 2 1 4 6 8
19 8 4 8 7 11 10 15 12 12 12 10 19 20 18 17 13 15 13 21 18 16 10 11 9 3 14 8 11 2 10 5 1 1 2 6 6 6 8 6 4 2 7 9 8
9 7 9 12 11 9 14 15 6 7 18 13 14 17 20 25 18 21 20 20 14 26 12 10 6 6 7 7 9 6 9 5 3 5 3 4 5 5 7 9 8 9 9 6 4
8 6 8 16 10 4 9 11 3 9 11 18 12 8 8 22 23 26 25 14 23 18 18 9 4 5 5 8 9 6 5 8 6 3 1 1 4 3 8 15 10 8 5 5 7
6 4 11 13 8 3 5 7 13 7 3 9 3 9 11 24 18 17 18 14 26 23 23 10 3 4 9 2 4 6 4 8 3 5 2 3 6 6 10 9 9 7 6 5 6
5 4 12 11 8 6 5 7 14 12 10 5 7 13 9 15 12 16 17 20 21 22 22 13 4 5 4 2 3 6 9 12 6 2 6 4 4 4 8 7 6 7 6 5 4
6 6 5 7 5 7 7 4 6 14 13 10 5 15 13 13 3 12 12 10 10 17 10 15 4 6 8 4 8 7 11 8 5 3 2 8 6 1 7 9 3 7 6 4 5
4 4 5 12 10 10 4 4 9 8 6 7 1 9 16 8 5 7 12 4 3 13 6 9 7 5 5 7 6 9 13 14 13 10 7 16 19 14 7 3 4 2 2 7 12
9 7 5 12 16 23 13 4 16 4 11 12 7 10 15 14 14 22 12 13 13 14 15 6 1 6 2 1 6 5 17 18 22 22 14 19 18 5 7 4 10 11 12 13 12
6 5 7 12 13 13 15 17 13 14 10 14 22 16 17 11 2 10 9 7 6 13 15 8 6 6 6 6 6 6 12 13 14 18 15 18 20 5 6 10 12 12 13 12 13
Wind_Direction
249 252 247 246 238 236 235 237 239 236 250 265 270 267 276 293 293 250 248 254 46 23 338 303 282 270 294 271 215 287 268 255 265 303 354 118 360 113 108 289 31 134 51 86 112
249 251 252 246 247 239 235 231 235 232 236 251 263 269 252 235 266 258 258 128 112 26 301 295 306 328 298 245 286 239 256 254 270 19 355 344 22 320 304 239 236 182 114 118 125
245 247 247 251 246 244 235 227 220 228 233 236 245 223 202 191 279 256 224 172 165 179 275 299 300 288 282 281 260 244 244 274 291 39 35 330 312 293 322 271 301 15 162 148 140
247 248 247 247 247 246 241 230 216 211 224 225 231 189 173 210 234 38 238 170 162 184 246 262 274 268 265 257 258 263 270 282 290 59 33 293 324 307 276 263 313 32 52 162 152
244 247 247 240 241 241 240 235 215 211 212 215 223 176 160 227 232 104 103 127 162 194 220 235 247 264 255 268 250 258 252 281 291 320 294 280 281 265 284 295 292 254 51 220 169
240 241 243 239 234 240 238 233 226 211 214 209 212 185 239 239 226 217 112 140 201 210 223 230 237 258 302 280 277 273 301 264 266 249 266 268 264 286 261 277 250 252 219 225 189
241 243 237 236 234 231 235 234 227 215 216 208 197 214 240 234 263 275 162 146 204 205 227 228 242 253 246 290 307 282 291 275 258 245 240 299 276 248 245 249 256 246 217 238 200
229 232 240 238 232 230 229 230 226 215 210 208 191 221 248 209 268 279 185 186 184 232 238 280 227 256 257 276 282 260 245 264 246 244 210 134 263 297 285 216 238 253 246 221 203
230 226 231 234 229 228 229 231 232 222 208 198 197 210 251 164 234 246 224 191 191 202 313 328 184 229 238 229 245 226 247 239 246 242 210 174 266 297 334 259 234 266 278 245 232
226 223 222 227 225 222 222 219 235 234 212 214 223 187 253 213 177 168 243 195 175 168 123 197 195 230 218 210 224 229 228 235 256 194 193 274 260 261 270 251 259 267 277 282 283
229 223 217 219 219 214 211 195 199 229 215 176 177 219 290 198 183 185 203 213 195 188 198 194 205 222 218 219 243 265 271 263 266 278 212 236 266 272 281 275 267 257 238 248 264
224 219 216 214 217 212 209 217 204 340 206 202 221 218 246 175 181 188 183 197 189 208 204 186 225 227 231 229 232 247 256 263 278 121 128 282 274 276 282 281 265 260 257 253 252
220 217 213 209 210 212 215 229 243 38 254 198 209 220 211 215 210 194 184 186 191 213 207 214 232 217 225 234 240 244 241 253 269 291 244 296 274 265 251 247 253 246 246 248 253
220 215 210 201 206 205 227 224 227 120 246 177 202 220 206 218 234 202 187 176 204 214 211 226 239 239 215 231 219 242 230 254 270 317 264 215 287 225 298 292 286 279 236 225 249
221 216 211 196 162 198 178 199 106 149 241 171 178 177 195 189 124 205 177 211 202 186 174 197 233 216 233 224 221 254 224 227 247 254 269 253 273 260 288 272 269 266 230 243 251
221 214 206 206 207 201 182 116 122 206 225 169 141 174 176 193 205 121 167 152 182 177 231 225 60 292 257 233 226 268 255 262 255 227 236 240 197 277 253 251 251 249 174 155 68
219 212 203 196 206 189 164 176 215 216 118 188 174 172 186 184 198 178 178 189 171 185 193 174 179 233 23 167 283 234 180 225 205 187 234 170 193 236 297 288 290 273 280 45 74
215 204 203 201 191 184 174 199 224 196 193 156 169 186 187 168 195 184 190 195 203 196 181 206 209 197 155 224 200 210 224 212 226 189 223 138 225 229 95 235 191 3 43 66 61
203 193 171 198 180 189 196 209 217 193 140 177 166 178 191 187 159 185 201 194 199 188 171 182 221 126 173 151 151 183 207 261 159 309 86 198 243 284 248 266 33 359 63 76 66
190 185 195 193 194 210 221 206 186 239 160 170 185 180 182 180 172 187 186 194 188 204 193 180 174 185 158 167 192 178 151 203 246 138 205 230 222 228 162 130 89 83 95 101 110
177 177 189 183 173 223 215 184 200 218 159 166 202 169 196 177 182 188 186 175 192 199 204 179 169 152 139 202 178 184 183 206 181 211 294 82 250 95 84 125 122 119 117 51 29
164 177 151 147 199 172 227 170 186 187 288 224 338 163 183 180 184 189 187 194 184 174 194 207 162 165 186 24 307 285 222 196 188 225 277 103 269 86 117 119 123 110 81 23 32
187 150 153 158 198 206 158 189 190 154 182 190 216 231 200 169 189 182 197 190 170 171 185 170 174 129 170 340 286 230 220 232 202 41 193 140 280 81 126 136 162 123 69 42 6
155 165 158 176 185 193 239 154 167 171 166 169 247 216 175 169 154 175 180 161 156 185 164 145 148 197 209 176 142 198 205 212 163 165 179 217 261 110 186 187 70 63 56 352 26
181 180 174 168 186 193 193 178 168 169 174 160 220 231 170 151 148 146 161 87 78 167 144 168 201 203 236 115 186 192 195 195 209 216 184 233 239 246 252 4 74 30 124 49 44
168 170 196 171 179 183 185 201 194 178 166 180 181 215 180 178 182 173 158 165 171 167 172 181 221 170 299 173 246 232 198 197 203 220 235 257 265 246 322 65 40 28 44 31 21
233 124 152 150 175 178 201 194 204 181 228 196 187 170 200 198 136 167 102 94 128 173 180 164 143 152 200 127 67 308 228 211 222 229 220 241 258 298 356 50 32 48 45 28 7